Weather History for KGEG - June, 2014

Change the Weather History Date:

Monday, June 30, 2014

  Actual Average Record
Temperature  
Mean Temperature 63 °F 66 °F  
Max Temperature 78 °F 78 °F 99 °F (1924)
Min Temperature 48 °F 53 °F 37 °F (1949)
Degree Days  
Heating Degree Days 2 2  
Month to date heating degree days 106 136  
Since 1 June heating degree days 106 136  
Since 1 July heating degree days 6693 6593  
Cooling Degree Days 0 3  
Month to date cooling degree days 14 49  
Year to date cooling degree days 20 63  
Since 1 June cooling degree days 14 49  
Growing Degree Days 13 (Base 50)    
Moisture  
Dew Point 43 °F    
Average Humidity 54    
Maximum Humidity 83    
Minimum Humidity 25    
Precipitation  
Precipitation 0.00 in 0.03 in 0.85 in (1898)
Month to date precipitation 1.84 1.25  
Year to date precipitation 9.24 8.88  
Snow  
Snow 0.00 in 0.00 in 0.00 in (2002)
Month to date snowfall 0.0 0.0  
Since 1 June snowfall 0.0 0.0  
Since 1 July snowfall 37.6 44.9  
Snow Depth 0.00 in    
Sea Level Pressure  
Sea Level Pressure 30.15 in    
Wind  
Wind Speed 4 mph (ESE)    
Max Wind Speed 13 mph    
Max Gust Speed 15 mph    
Visibility 10 miles    
Events      
T = Trace of Precipitation, MM = Missing Value Source: NWS Daily Summary

Daily Weather History Graph

Daily Weather History Graph

Search for Another Location

Airport or City:

Trip Planner

Search our weather history database for the weather conditions in past years. The results will help you decide how hot, cold, wet, or windy it might be!

Date:

Astronomy

Jun. 30, 2014 Rise Set
Actual Time 4:55 AM PDT 8:51 PM PDT
Civil Twilight 4:15 AM PDT 9:31 PM PDT
Nautical Twilight 3:19 AM PDT 10:27 PM PDT
Astronomical Twilight 1:52 AM PDT 11:53 PM PDT
Moon 8:28 AM PDT (6/30) 10:29 PM PDT (6/30)
Length of Visible Light 17h 16m
Length of Day
15h 55m
Waxing Crescent, 11% of the Moon is Illuminated
Jun 30
Waxing Crescent
Jul 5
First Quarter
Jul 12
Full
Jul 18
Last Quarter
Jul 26
New

Hourly Weather History & Observations

Time (PDT) Temp. Dew Point Humidity Pressure Visibility Wind Dir Wind Speed Gust Speed Precip Events Conditions
12:53 AM 57.0 °F 48.0 °F 72% 30.10 in 10.0 mi NE 4.6 mph - N/A   Partly Cloudy
1:53 AM 54.0 °F 48.0 °F 80% 30.12 in 10.0 mi NE 5.8 mph - N/A   Clear
2:53 AM 54.0 °F 48.9 °F 83% 30.13 in 10.0 mi Calm Calm - N/A   Partly Cloudy
3:53 AM 52.0 °F 45.0 °F 77% 30.14 in 10.0 mi SE 3.5 mph - N/A   Partly Cloudy
4:53 AM 50.0 °F 42.1 °F 74% 30.15 in 10.0 mi South 6.9 mph - N/A   Partly Cloudy
5:53 AM 48.9 °F 41.0 °F 74% 30.17 in 10.0 mi SSE 5.8 mph - N/A   Partly Cloudy
6:53 AM 52.0 °F 42.1 °F 69% 30.18 in 10.0 mi SSE 6.9 mph - N/A   Partly Cloudy
7:53 AM 55.9 °F 42.1 °F 60% 30.18 in 10.0 mi South 5.8 mph - N/A   Partly Cloudy
8:53 AM 60.1 °F 44.1 °F 55% 30.18 in 10.0 mi South 4.6 mph - N/A   Partly Cloudy
9:53 AM 64.0 °F 45.0 °F 50% 30.19 in 10.0 mi Variable 4.6 mph - N/A   Partly Cloudy
10:53 AM 66.9 °F 43.0 °F 42% 30.19 in 10.0 mi SE 4.6 mph - N/A   Partly Cloudy
11:53 AM 69.1 °F 43.0 °F 39% 30.19 in 10.0 mi SSW 5.8 mph - N/A   Partly Cloudy
12:53 PM 71.1 °F 43.0 °F 36% 30.18 in 10.0 mi Variable 4.6 mph - N/A   Scattered Clouds
1:53 PM 73.0 °F 42.1 °F 33% 30.17 in 10.0 mi Variable 3.5 mph - N/A   Scattered Clouds
2:53 PM 75.9 °F 41.0 °F 29% 30.16 in 10.0 mi Calm Calm - N/A   Scattered Clouds
3:53 PM 78.1 °F 39.9 °F 25% 30.15 in 10.0 mi Calm Calm - N/A   Scattered Clouds
4:53 PM 75.9 °F 39.9 °F 27% 30.15 in 10.0 mi Calm Calm - N/A   Partly Cloudy
5:53 PM 78.1 °F 41.0 °F 27% 30.13 in 10.0 mi ENE 10.4 mph - N/A   Partly Cloudy
6:53 PM 77.0 °F 41.0 °F 28% 30.12 in 10.0 mi NE 6.9 mph - N/A   Partly Cloudy
7:53 PM 75.9 °F 41.0 °F 29% 30.12 in 10.0 mi NE 9.2 mph - N/A   Partly Cloudy
8:53 PM 73.0 °F 42.1 °F 33% 30.10 in 10.0 mi East 4.6 mph - N/A   Partly Cloudy
9:53 PM 71.6 °F 42.8 °F 35% 30.14 in 10.0 mi ENE 4.6 mph - N/A   Partly Cloudy
10:53 PM 68.0 °F 44.1 °F 42% 30.10 in 10.0 mi Calm Calm - N/A   Clear
11:53 PM 63.0 °F 46.0 °F 54% 30.09 in 10.0 mi Calm Calm - N/A   Clear